| time (UTC) | temp F | wind direction | speed MPH | gust MPH | rain 1hr in | rain 24hr in | rain mn in | humidity % | barometer mb |
| 20260831132905 | 58 | 184 | 4.0 | 8.0 | 0.00 | 0.57 | 0.06 | 85 | 1009.5 |
| 20260831131905 | 58 | 237 | 3.0 | 12.0 | 0.00 | 0.57 | 0.06 | 86 | 1009.4 |
| 20260831130406 | 59 | 314 | 3.0 | 9.0 | 0.00 | 0.57 | 0.06 | 86 | 1009.2 |
| 20260831125906 | 59 | 275 | 3.0 | 12.0 | 0.00 | 0.57 | 0.06 | 87 | 1009.1 |
| 20260831125405 | 59 | 265 | 2.0 | 8.0 | 0.00 | 0.57 | 0.06 | 87 | 1009.0 |
| 20260831124906 | 59 | 218 | 4.0 | 8.0 | 0.00 | 0.57 | 0.06 | 87 | 1009.0 |
| 20260831124406 | 59 | 216 | 1.0 | 7.0 | 0.00 | 0.57 | 0.06 | 89 | 1008.8 |
| 20260831123905 | 59 | 215 | 3.0 | 8.0 | 0.00 | 0.57 | 0.06 | 89 | 1008.7 |
| 20260831123405 | 59 | 247 | 3.0 | 9.0 | 0.00 | 0.57 | 0.06 | 87 | 1008.6 |
| 20260831122406 | 59 | 234 | 3.0 | 9.0 | 0.00 | 0.57 | 0.06 | 89 | 1008.6 |
| 20260831121905 | 59 | 243 | 2.0 | 12.0 | 0.00 | 0.57 | 0.06 | 91 | 1008.6 |
| 20260831121405 | 59 | 214 | 5.0 | 9.0 | 0.00 | 0.57 | 0.06 | 90 | 1008.6 |
| 20260831120905 | 59 | 205 | 6.0 | 12.0 | 0.00 | 0.57 | 0.06 | 90 | 1008.4 |
| 20260831115906 | 59 | 212 | 5.0 | 10.0 | 0.00 | 0.57 | 0.06 | 90 | 1008.4 |
| 20260831115405 | 59 | 208 | 5.0 | 10.0 | 0.00 | 0.57 | 0.06 | 90 | 1008.4 |
| 20260831114906 | 59 | 257 | 3.0 | 8.0 | 0.00 | 0.57 | 0.06 | 90 | 1008.4 |
| 20260831114405 | 59 | 261 | 2.0 | 6.0 | 0.00 | 0.57 | 0.06 | 89 | 1008.4 |
| 20260831113905 | 59 | 263 | 2.0 | 7.0 | 0.00 | 0.57 | 0.06 | 90 | 1008.3 |
| 20260831113406 | 60 | 264 | 1.0 | 3.0 | 0.00 | 0.57 | 0.06 | 90 | 1008.3 |
| 20260831112906 | 60 | 265 | 1.0 | 8.0 | 0.00 | 0.57 | 0.06 | 89 | 1008.2 |
| 20260831112406 | 60 | 281 | 3.0 | 7.0 | 0.00 | 0.57 | 0.06 | 88 | 1008.0 |
| 20260831111905 | 60 | 293 | 3.0 | 7.0 | 0.00 | 0.57 | 0.06 | 87 | 1008.0 |
| 20260831111405 | 61 | 276 | 2.0 | 8.0 | 0.00 | 0.57 | 0.06 | 89 | 1008.0 |
| 20260831110905 | 61 | 232 | 2.0 | 6.0 | 0.00 | 0.57 | 0.06 | 91 | 1007.8 |
| 20260831110405 | 61 | 212 | 2.0 | 7.0 | 0.00 | 0.57 | 0.06 | 94 | 1007.8 |
| 20260831105905 | 60 | 212 | 3.0 | 5.0 | 0.00 | 0.57 | 0.06 | 95 | 1007.7 |
| 20260831105404 | 59 | 212 | 0.0 | 3.0 | 0.00 | 0.57 | 0.06 | 95 | 1007.5 |
| 20260831104905 | 59 | 212 | 1.0 | 3.0 | 0.00 | 0.57 | 0.06 | 94 | 1007.5 |
| 20260831104405 | 59 | 212 | 2.0 | 9.0 | 0.00 | 0.57 | 0.06 | 93 | 1007.5 |
| 20260831103904 | 59 | 210 | 4.0 | 9.0 | 0.00 | 0.57 | 0.06 | 93 | 1007.4 |
| 20260831102905 | 59 | 209 | 4.0 | 8.0 | 0.00 | 0.57 | 0.06 | 94 | 1007.2 |
| 20260831102404 | 59 | 207 | 4.0 | 9.0 | 0.00 | 0.57 | 0.06 | 94 | 1007.2 |
| 20260831101904 | 59 | 206 | 3.0 | 7.0 | 0.00 | 0.57 | 0.06 | 94 | 1007.1 |
| 20260831101404 | 59 | 205 | 2.0 | 6.0 | 0.00 | 0.57 | 0.06 | 94 | 1007.0 |
| 20260831100905 | 60 | 205 | 0.0 | 3.0 | 0.00 | 0.57 | 0.06 | 95 | 1007.1 |
| 20260831100404 | 59 | 205 | 3.0 | 7.0 | 0.00 | 0.57 | 0.06 | 94 | 1007.0 |
| 20260831095904 | 60 | 207 | 3.0 | 7.0 | 0.01 | 0.57 | 0.06 | 95 | 1006.9 |
| 20260831095405 | 59 | 207 | 3.0 | 7.0 | 0.01 | 0.57 | 0.06 | 95 | 1006.8 |
| 20260831094905 | 59 | 209 | 6.0 | 12.0 | 0.02 | 0.57 | 0.06 | 95 | 1006.7 |
| 20260831094405 | 59 | 215 | 4.0 | 8.0 | 0.03 | 0.57 | 0.06 | 96 | 1006.7 |
| 20260831093905 | 60 | 215 | 1.0 | 8.0 | 0.03 | 0.57 | 0.06 | 97 | 1006.6 |
| 20260831093405 | 59 | 215 | 5.0 | 9.0 | 0.03 | 0.57 | 0.06 | 97 | 1006.7 |
| 20260831092405 | 58 | 213 | 3.0 | 6.0 | 0.05 | 0.57 | 0.06 | 97 | 1006.6 |
| 20260831091905 | 58 | 213 | 4.0 | 7.0 | 0.06 | 0.57 | 0.06 | 97 | 1006.5 |
| 20260831091405 | 57 | 213 | 3.0 | 7.0 | 0.06 | 0.57 | 0.06 | 97 | 1006.5 |
| 20260831090905 | 57 | 213 | 5.0 | 7.0 | 0.06 | 0.57 | 0.06 | 97 | 1006.5 |
| 20260831090406 | 57 | 214 | 6.0 | 9.0 | 0.06 | 0.57 | 0.06 | 97 | 1006.4 |
| 20260831085905 | 57 | 230 | 5.0 | 8.0 | 0.05 | 0.57 | 0.05 | 97 | 1006.4 |
| 20260831085405 | 57 | 234 | 5.0 | 7.0 | 0.05 | 0.57 | 0.05 | 97 | 1006.4 |
| 20260831084905 | 57 | 234 | 4.0 | 6.0 | 0.04 | 0.56 | 0.04 | 97 | 1006.3 |
| 20260831084405 | 57 | 235 | 2.0 | 5.0 | 0.02 | 0.54 | 0.02 | 97 | 1006.3 |
| 20260831083405 | 57 | 235 | 1.0 | 3.0 | 0.02 | 0.54 | 0.02 | 97 | 1006.0 |
| 20260831082405 | 58 | 235 | 0.0 | 5.0 | 0.01 | 0.53 | 0.01 | 97 | 1005.9 |
| 20260831081404 | 57 | 236 | 0.0 | 3.0 | 0.00 | 0.52 | 0.00 | 97 | 1005.7 |
| 20260831080905 | 57 | 236 | 0.0 | 0.0 | 0.00 | 0.52 | 0.00 | 97 | 1005.7 |
| 20260831080403 | 57 | 236 | 0.0 | 0.0 | 0.00 | 0.52 | 0.00 | 97 | 1005.6 |
| 20260831075903 | 57 | 236 | 0.0 | 0.0 | 0.00 | 0.52 | 0.00 | 97 | 1005.6 |
| 20260831075403 | 57 | 236 | 0.0 | 0.0 | 0.00 | 0.52 | 0.00 | 97 | 1005.6 |
| 20260831074903 | 57 | 236 | 0.0 | 0.0 | 0.00 | 0.52 | 0.00 | 97 | 1005.5 |
| 20260831073904 | 57 | 236 | 0.0 | 0.0 | 0.00 | 0.52 | 0.00 | 97 | 1005.4 |
| 20260831073402 | 56 | 236 | 0.0 | 0.0 | 0.00 | 0.52 | 0.00 | 97 | 1005.3 |
| 20260831072903 | 56 | 236 | 0.0 | 0.0 | 0.00 | 0.52 | 0.00 | 97 | 1005.3 |
| 20260831072403 | 56 | 236 | 0.0 | 0.0 | 0.00 | 0.53 | 0.00 | 97 | 1005.2 |
| 20260831071903 | 56 | 236 | 0.0 | 0.0 | 0.00 | 0.53 | 0.00 | 97 | 1005.3 |
| 20260831071403 | 56 | 236 | 0.0 | 0.0 | 0.00 | 0.53 | 0.00 | 97 | 1005.2 |
| 20260831070903 | 56 | 235 | 0.0 | 0.0 | 0.00 | 0.53 | 0.00 | 97 | 1005.1 |
| 20260831070403 | 56 | 235 | 0.0 | 0.0 | 0.00 | 0.53 | 0.00 | 97 | 1005.1 |
| 20260831065903 | 56 | 236 | 0.0 | 0.0 | 0.00 | 0.53 | 0.00 | 97 | 1005.0 |
| 20260831064903 | 55 | 236 | 0.0 | 0.0 | 0.00 | 0.53 | 0.00 | 97 | 1004.9 |
| 20260831064403 | 55 | 236 | 0.0 | 0.0 | 0.00 | 0.53 | 0.00 | 97 | 1004.9 |
| 20260831063902 | 55 | 235 | 0.0 | 0.0 | 0.00 | 0.53 | 0.00 | 97 | 1004.8 |
| 20260831063404 | 55 | 236 | 0.0 | 0.0 | 0.00 | 0.53 | 0.00 | 97 | 1004.7 |
| 20260831062403 | 55 | 236 | 0.0 | 0.0 | 0.00 | 0.53 | 0.00 | 97 | 1004.6 |
| 20260831061903 | 55 | 236 | 0.0 | 0.0 | 0.00 | 0.53 | 0.00 | 97 | 1004.7 |
| 20260831061403 | 55 | 236 | 0.0 | 0.0 | 0.00 | 0.53 | 0.00 | 97 | 1004.5 |
| 20260831055903 | 54 | 236 | 0.0 | 0.0 | 0.00 | 0.53 | 0.00 | 97 | 1004.7 |
| 20260831055403 | 54 | 236 | 0.0 | 0.0 | 0.00 | 0.53 | 0.00 | 97 | 1004.6 |
| 20260831054903 | 54 | 236 | 0.0 | 0.0 | 0.00 | 0.53 | 0.00 | 97 | 1004.6 |
| 20260831053903 | 54 | 236 | 0.0 | 0.0 | 0.00 | 0.53 | 0.00 | 97 | 1004.5 |
| 20260831053403 | 54 | 236 | 0.0 | 0.0 | 0.00 | 0.53 | 0.00 | 97 | 1004.4 |
| 20260831052903 | 54 | 236 | 0.0 | 0.0 | 0.00 | 0.53 | 0.00 | 97 | 1004.2 |
| 20260831052402 | 54 | 236 | 0.0 | 0.0 | 0.00 | 0.53 | 0.00 | 97 | 1004.1 |
| 20260831051403 | 54 | 236 | 0.0 | 0.0 | 0.00 | 0.53 | 0.00 | 97 | 1004.1 |
| 20260831050403 | 54 | 236 | 0.0 | 0.0 | 0.00 | 0.53 | 0.00 | 97 | 1003.8 |
| 20260831044904 | 54 | 236 | 0.0 | 0.0 | 0.00 | 0.53 | 0.00 | 97 | 1003.6 |
| 20260831043904 | 54 | 236 | 0.0 | 0.0 | 0.00 | 0.53 | 0.00 | 97 | 1003.6 |
| 20260831043403 | 54 | 236 | 0.0 | 0.0 | 0.00 | 0.53 | 0.00 | 97 | 1003.6 |
| 20260831041903 | 54 | 236 | 0.0 | 0.0 | 0.00 | 0.53 | 0.00 | 97 | 1003.5 |
| 20260831041403 | 54 | 236 | 0.0 | 0.0 | 0.00 | 0.53 | 0.00 | 97 | 1003.5 |
| 20260831040903 | 54 | 236 | 0.0 | 0.0 | 0.00 | 0.53 | 0.00 | 97 | 1003.5 |
| 20260831035903 | 53 | 236 | 0.0 | 0.0 | 0.00 | 0.53 | 0.00 | 96 | 1003.4 |
| 20260831035403 | 53 | 236 | 0.0 | 0.0 | 0.00 | 0.53 | 0.00 | 96 | 1003.4 |
| 20260831034903 | 53 | 236 | 0.0 | 0.0 | 0.00 | 0.53 | 0.00 | 96 | 1003.3 |
| 20260831034403 | 53 | 236 | 0.0 | 0.0 | 0.00 | 0.53 | 0.00 | 96 | 1003.3 |
| 20260831033903 | 53 | 236 | 0.0 | 0.0 | 0.00 | 0.53 | 0.00 | 97 | 1003.4 |
| 20260831032904 | 53 | 236 | 0.0 | 0.0 | 0.00 | 0.53 | 0.00 | 96 | 1003.4 |
| 20260831032403 | 53 | 236 | 0.0 | 0.0 | 0.00 | 0.53 | 0.00 | 96 | 1003.4 |
| 20260831031903 | 53 | 236 | 0.0 | 0.0 | 0.00 | 0.53 | 0.00 | 96 | 1003.3 |
| 20260831030903 | 53 | 236 | 0.0 | 0.0 | 0.00 | 0.53 | 0.00 | 96 | 1003.3 |
| 20260831030403 | 53 | 235 | 0.0 | 0.0 | 0.00 | 0.53 | 0.00 | 96 | 1003.3 |
| 20260831025904 | 53 | 236 | 0.0 | 0.0 | 0.00 | 0.53 | 0.00 | 96 | 1003.2 |
| 20260831024904 | 52 | 236 | 0.0 | 0.0 | 0.00 | 0.53 | 0.00 | 96 | 1003.2 |
| 20260831024408 | 52 | 236 | 0.0 | 0.0 | 0.00 | 0.53 | 0.00 | 96 | 1003.2 |
| 20260831023903 | 52 | 236 | 0.0 | 0.0 | 0.00 | 0.53 | 0.00 | 96 | 1003.1 |
| 20260831023403 | 52 | 236 | 0.0 | 0.0 | 0.00 | 0.53 | 0.00 | 96 | 1003.0 |
| 20260831022904 | 52 | 236 | 0.0 | 0.0 | 0.00 | 0.53 | 0.00 | 96 | 1003.0 |
| 20260831022403 | 52 | 236 | 0.0 | 0.0 | 0.00 | 0.53 | 0.00 | 96 | 1003.0 |
| 20260831021904 | 52 | 236 | 0.0 | 0.0 | 0.00 | 0.53 | 0.00 | 96 | 1002.8 |
| 20260831020404 | 52 | 236 | 0.0 | 0.0 | 0.00 | 0.53 | 0.00 | 96 | 1002.9 |
| 20260831015404 | 53 | 236 | 0.0 | 0.0 | 0.00 | 0.53 | 0.00 | 96 | 1002.9 |
| 20260831014903 | 53 | 236 | 0.0 | 0.0 | 0.00 | 0.53 | 0.00 | 96 | 1002.8 |
| 20260831014404 | 53 | 236 | 0.0 | 0.0 | 0.00 | 0.53 | 0.00 | 96 | 1002.8 |
| 20260831013403 | 54 | 236 | 0.0 | 0.0 | 0.00 | 0.53 | 0.00 | 96 | 1002.8 |
| 20260831012904 | 54 | 236 | 0.0 | 0.0 | 0.00 | 0.53 | 0.00 | 96 | 1002.8 |
| 20260831011904 | 54 | 236 | 0.0 | 0.0 | 0.00 | 0.53 | 0.00 | 96 | 1002.9 |
| 20260831010903 | 55 | 236 | 0.0 | 0.0 | 0.00 | 0.53 | 0.00 | 96 | 1002.7 |
| 20260831005903 | 55 | 236 | 0.0 | 0.0 | 0.00 | 0.53 | 0.00 | 96 | 1002.7 |
| 20260831005403 | 55 | 236 | 0.0 | 0.0 | 0.00 | 0.53 | 0.00 | 96 | 1002.7 |
| 20260831004903 | 55 | 236 | 0.0 | 0.0 | 0.00 | 0.53 | 0.00 | 96 | 1002.8 |
| 20260831003903 | 55 | 236 | 0.0 | 0.0 | 0.00 | 0.53 | 0.00 | 96 | 1002.8 |
| 20260831003403 | 55 | 236 | 0.0 | 0.0 | 0.00 | 0.53 | 0.00 | 96 | 1002.6 |
| 20260831002904 | 55 | 236 | 0.0 | 0.0 | 0.00 | 0.53 | 0.00 | 96 | 1002.5 |
| 20260831002403 | 56 | 236 | 0.0 | 0.0 | 0.00 | 0.53 | 0.00 | 96 | 1002.6 |
| 20260831001904 | 56 | 236 | 0.0 | 0.0 | 0.00 | 0.53 | 0.00 | 96 | 1002.6 |
| 20260831001405 | 56 | 236 | 0.0 | 0.0 | 0.00 | 0.53 | 0.00 | 96 | 1002.6 |
| 20260831000904 | 56 | 236 | 0.0 | 0.0 | 0.00 | 0.53 | 0.00 | 96 | 1002.6 |
| 20260831000403 | 56 | 236 | 0.0 | 0.0 | 0.00 | 0.53 | 0.00 | 96 | 1002.5 |
| 20260830235403 | 56 | 236 | 0.0 | 2.0 | 0.00 | 0.53 | 0.00 | 96 | 1002.6 |
| 20260830234903 | 56 | 236 | 0.0 | 2.0 | 0.00 | 0.53 | 0.00 | 96 | 1002.5 |
| 20260830234403 | 56 | 236 | 0.0 | 0.0 | 0.00 | 0.53 | 0.00 | 96 | 1002.4 |
| 20260830233903 | 56 | 236 | 0.0 | 0.0 | 0.00 | 0.53 | 0.00 | 96 | 1002.4 |
| 20260830233404 | 56 | 236 | 0.0 | 0.0 | 0.00 | 0.53 | 0.00 | 96 | 1002.3 |
| 20260830232903 | 56 | 236 | 0.0 | 0.0 | 0.00 | 0.53 | 0.00 | 96 | 1002.4 |
| 20260830232405 | 56 | 236 | 0.0 | 0.0 | 0.00 | 0.53 | 0.00 | 96 | 1002.4 |
| 20260830231903 | 56 | 236 | 0.0 | 0.0 | 0.00 | 0.53 | 0.00 | 96 | 1002.6 |
| 20260830231403 | 56 | 236 | 0.0 | 0.0 | 0.00 | 0.53 | 0.00 | 96 | 1002.4 |
| 20260830230403 | 56 | 236 | 0.0 | 0.0 | 0.01 | 0.53 | 0.00 | 96 | 1002.6 |
| 20260830225903 | 56 | 236 | 0.0 | 0.0 | 0.01 | 0.53 | 0.53 | 96 | 1002.5 |
| 20260830224904 | 56 | 236 | 0.0 | 0.0 | 0.02 | 0.53 | 0.53 | 96 | 1002.4 |
| 20260830224404 | 56 | 236 | 0.0 | 0.0 | 0.05 | 0.53 | 0.53 | 96 | 1002.4 |
| 20260830223903 | 56 | 236 | 0.0 | 0.0 | 0.06 | 0.53 | 0.53 | 96 | 1002.4 |
| 20260830223403 | 56 | 236 | 0.0 | 0.0 | 0.07 | 0.53 | 0.53 | 96 | 1002.4 |
| 20260830222904 | 56 | 236 | 0.0 | 0.0 | 0.09 | 0.53 | 0.53 | 96 | 1002.3 |
| 20260830222404 | 56 | 236 | 0.0 | 1.0 | 0.10 | 0.53 | 0.53 | 96 | 1002.4 |
| 20260830221404 | 56 | 236 | 0.0 | 0.0 | 0.11 | 0.53 | 0.53 | 96 | 1002.3 |
| 20260830220905 | 56 | 236 | 0.0 | 0.0 | 0.11 | 0.53 | 0.53 | 96 | 1002.3 |
| 20260830220404 | 56 | 236 | 0.0 | 0.0 | 0.11 | 0.53 | 0.53 | 96 | 1002.2 |
| 20260830215904 | 56 | 236 | 0.0 | 0.0 | 0.10 | 0.52 | 0.52 | 96 | 1002.2 |
| 20260830215404 | 56 | 236 | 0.0 | 0.0 | 0.09 | 0.51 | 0.51 | 96 | 1002.1 |
| 20260830213404 | 56 | 236 | 0.0 | 0.0 | 0.04 | 0.46 | 0.46 | 96 | 1002.2 |
| 20260830212905 | 56 | 236 | 0.0 | 0.0 | 0.02 | 0.44 | 0.44 | 96 | 1002.2 |
| 20260830211904 | 56 | 236 | 0.0 | 0.0 | 0.01 | 0.43 | 0.43 | 96 | 1002.1 |
| 20260830211405 | 56 | 236 | 0.0 | 0.0 | 0.00 | 0.42 | 0.42 | 96 | 1002.1 |
| 20260830210905 | 56 | 236 | 0.0 | 0.0 | 0.00 | 0.42 | 0.42 | 96 | 1002.1 |
| 20260830205904 | 56 | 236 | 0.0 | 0.0 | 0.00 | 0.42 | 0.42 | 96 | 1002.1 |
| 20260830205405 | 56 | 236 | 0.0 | 0.0 | 0.00 | 0.42 | 0.42 | 96 | 1002.1 |
| 20260830204904 | 56 | 236 | 0.0 | 0.0 | 0.00 | 0.42 | 0.42 | 96 | 1002.0 |
| 20260830204404 | 56 | 236 | 0.0 | 0.0 | 0.00 | 0.42 | 0.42 | 96 | 1002.1 |
| 20260830203905 | 56 | 236 | 0.0 | 0.0 | 0.00 | 0.42 | 0.42 | 96 | 1002.1 |
| 20260830203404 | 56 | 236 | 0.0 | 1.0 | 0.00 | 0.42 | 0.42 | 96 | 1002.1 |
| 20260830202905 | 56 | 236 | 0.0 | 0.0 | 0.00 | 0.42 | 0.42 | 96 | 1002.1 |
| 20260830202405 | 56 | 236 | 0.0 | 0.0 | 0.00 | 0.42 | 0.42 | 95 | 1002.1 |
| 20260830201905 | 56 | 236 | 0.0 | 0.0 | 0.00 | 0.42 | 0.42 | 96 | 1002.0 |
| 20260830200904 | 57 | 236 | 0.0 | 0.0 | 0.00 | 0.42 | 0.42 | 96 | 1002.1 |
| 20260830200404 | 57 | 236 | 0.0 | 0.0 | 0.00 | 0.42 | 0.42 | 96 | 1002.0 |
| 20260830195904 | 57 | 236 | 0.0 | 0.0 | 0.00 | 0.42 | 0.42 | 96 | 1002.0 |
| 20260830195404 | 57 | 236 | 0.0 | 0.0 | 0.01 | 0.42 | 0.42 | 96 | 1002.0 |
| 20260830194905 | 57 | 236 | 0.0 | 0.0 | 0.02 | 0.42 | 0.42 | 96 | 1001.9 |
| 20260830194405 | 57 | 236 | 0.0 | 0.0 | 0.03 | 0.42 | 0.42 | 96 | 1001.8 |
| 20260830191904 | 58 | 236 | 0.0 | 0.0 | 0.13 | 0.42 | 0.42 | 96 | 1001.7 |
| 20260830190904 | 58 | 236 | 0.0 | 0.0 | 0.20 | 0.42 | 0.42 | 96 | 1001.8 |
| 20260830190404 | 58 | 236 | 0.0 | 0.0 | 0.20 | 0.42 | 0.42 | 96 | 1001.7 |
| 20260830185904 | 58 | 236 | 0.0 | 0.0 | 0.20 | 0.42 | 0.42 | 96 | 1001.8 |
| 20260830185404 | 59 | 236 | 0.0 | 0.0 | 0.19 | 0.41 | 0.41 | 96 | 1001.9 |
| 20260830183904 | 59 | 236 | 0.0 | 0.0 | 0.14 | 0.36 | 0.36 | 96 | 1002.0 |
| 20260830183404 | 59 | 236 | 0.0 | 0.0 | 0.12 | 0.34 | 0.34 | 96 | 1002.0 |
| 20260830182904 | 59 | 236 | 0.0 | 0.0 | 0.09 | 0.31 | 0.31 | 96 | 1002.1 |
| 20260830182404 | 60 | 236 | 0.0 | 0.0 | 0.07 | 0.29 | 0.29 | 96 | 1002.0 |
| 20260830181904 | 60 | 235 | 0.0 | 0.0 | 0.06 | 0.28 | 0.28 | 96 | 1001.8 |
| 20260830181404 | 60 | 236 | 1.0 | 2.0 | 0.03 | 0.25 | 0.25 | 96 | 1001.9 |
| 20260830180904 | 60 | 235 | 3.0 | 6.0 | 0.00 | 0.22 | 0.22 | 96 | 1001.9 |
| 20260830180404 | 60 | 236 | 0.0 | 0.0 | 0.00 | 0.22 | 0.22 | 96 | 1001.8 |
| 20260830175904 | 60 | 236 | 0.0 | 0.0 | 0.00 | 0.22 | 0.22 | 96 | 1001.7 |
| 20260830175405 | 60 | 236 | 0.0 | 0.0 | 0.00 | 0.22 | 0.22 | 96 | 1001.7 |
| 20260830174904 | 60 | 236 | 0.0 | 0.0 | 0.00 | 0.22 | 0.22 | 96 | 1001.7 |
| 20260830174404 | 60 | 236 | 0.0 | 0.0 | 0.01 | 0.22 | 0.22 | 96 | 1001.7 |
| 20260830173404 | 60 | 236 | 0.0 | 0.0 | 0.06 | 0.22 | 0.22 | 96 | 1001.8 |
| 20260830172405 | 60 | 236 | 0.0 | 2.0 | 0.15 | 0.22 | 0.22 | 96 | 1001.8 |
| 20260830171905 | 60 | 236 | 0.0 | 0.0 | 0.17 | 0.22 | 0.22 | 96 | 1001.8 |
| 20260830171404 | 60 | 236 | 0.0 | 0.0 | 0.21 | 0.22 | 0.22 | 96 | 1001.7 |
| 20260830170904 | 60 | 236 | 0.0 | 0.0 | 0.21 | 0.22 | 0.22 | 96 | 1001.8 |
| 20260830165904 | 60 | 236 | 0.0 | 0.0 | 0.21 | 0.22 | 0.22 | 96 | 1001.8 |
| 20260830165404 | 60 | 236 | 0.0 | 0.0 | 0.21 | 0.22 | 0.22 | 96 | 1001.9 |
| 20260830164406 | 59 | 236 | 0.0 | 0.0 | 0.20 | 0.21 | 0.21 | 95 | 1002.0 |
| 20260830163904 | 59 | 236 | 0.0 | 0.0 | 0.20 | 0.20 | 0.20 | 95 | 1002.0 |
| 20260830162904 | 59 | 236 | 0.0 | 0.0 | 0.11 | 0.12 | 0.12 | 94 | 1002.1 |
| 20260830162404 | 60 | 236 | 0.0 | 0.0 | 0.06 | 0.07 | 0.07 | 93 | 1002.0 |
| 20260830161904 | 60 | 236 | 0.0 | 3.0 | 0.04 | 0.05 | 0.05 | 93 | 1002.0 |
| 20260830161404 | 60 | 236 | 1.0 | 3.0 | 0.00 | 0.01 | 0.01 | 92 | 1002.0 |
| 20260830160904 | 60 | 236 | 2.0 | 3.0 | 0.00 | 0.01 | 0.01 | 92 | 1002.1 |
| 20260830160404 | 60 | 236 | 0.0 | 3.0 | 0.00 | 0.01 | 0.01 | 92 | 1002.0 |
| 20260830155904 | 60 | 236 | 1.0 | 3.0 | 0.00 | 0.01 | 0.01 | 92 | 1002.1 |
| 20260830154904 | 60 | 236 | 1.0 | 3.0 | 0.00 | 0.01 | 0.01 | 91 | 1002.0 |
| 20260830154404 | 61 | 236 | 1.0 | 2.0 | 0.00 | 0.01 | 0.01 | 92 | 1002.0 |
| 20260830153904 | 61 | 236 | 0.0 | 0.0 | 0.00 | 0.01 | 0.01 | 92 | 1002.0 |
| 20260830153405 | 60 | 236 | 1.0 | 5.0 | 0.00 | 0.01 | 0.01 | 91 | 1002.0 |
| 20260830152904 | 61 | 236 | 1.0 | 3.0 | 0.00 | 0.01 | 0.01 | 92 | 1002.0 |
| 20260830152404 | 60 | 236 | 0.0 | 1.0 | 0.00 | 0.01 | 0.01 | 92 | 1002.0 |
| 20260830151905 | 60 | 236 | 0.0 | 0.0 | 0.00 | 0.01 | 0.01 | 92 | 1002.0 |
| 20260830151404 | 60 | 236 | 1.0 | 3.0 | 0.00 | 0.01 | 0.01 | 91 | 1002.1 |
| 20260830150905 | 60 | 236 | 0.0 | 0.0 | 0.00 | 0.01 | 0.01 | 92 | 1002.0 |
| 20260830150404 | 60 | 236 | 1.0 | 5.0 | 0.00 | 0.01 | 0.01 | 90 | 1002.0 |
| 20260830145904 | 61 | 236 | 4.0 | 7.0 | 0.00 | 0.01 | 0.01 | 89 | 1002.0 |
| 20260830145404 | 61 | 237 | 0.0 | 1.0 | 0.00 | 0.01 | 0.01 | 90 | 1001.9 |
| 20260830144904 | 61 | 237 | 0.0 | 1.0 | 0.00 | 0.01 | 0.01 | 89 | 1001.9 |
| 20260830144404 | 61 | 237 | 0.0 | 1.0 | 0.00 | 0.01 | 0.01 | 88 | 1001.9 |
| 20260830143905 | 62 | 237 | 1.0 | 3.0 | 0.00 | 0.01 | 0.01 | 87 | 1002.0 |
| 20260830142905 | 63 | 237 | 1.0 | 3.0 | 0.00 | 0.01 | 0.01 | 87 | 1001.8 |
| 20260830142405 | 63 | 237 | 1.0 | 3.0 | 0.00 | 0.01 | 0.01 | 87 | 1001.8 |
| 20260830141404 | 62 | 237 | 0.0 | 1.0 | 0.00 | 0.01 | 0.01 | 90 | 1002.1 |
| 20260830140905 | 62 | 237 | 2.0 | 3.0 | 0.00 | 0.01 | 0.01 | 88 | 1002.2 |
| 20260830140404 | 62 | 237 | 1.0 | 3.0 | 0.00 | 0.01 | 0.01 | 88 | 1002.3 |
| 20260830135905 | 62 | 237 | 1.0 | 5.0 | 0.00 | 0.01 | 0.01 | 88 | 1002.4 |
| 20260830135405 | 62 | 237 | 0.0 | 2.0 | 0.00 | 0.01 | 0.01 | 89 | 1002.5 |
| 20260830134904 | 61 | 237 | 0.0 | 3.0 | 0.00 | 0.01 | 0.01 | 90 | 1002.4 |
| 20260830134405 | 61 | 237 | 1.0 | 3.0 | 0.00 | 0.01 | 0.01 | 90 | 1002.5 |
| 20260830133905 | 61 | 237 | 2.0 | 3.0 | 0.00 | 0.01 | 0.01 | 90 | 1002.6 |
| 20260830133404 | 61 | 237 | 1.0 | 3.0 | 0.00 | 0.01 | 0.01 | 90 | 1002.6 |